This demonstration page uses our WeatherBlox Daily Observations layout. Learn more.

Left ArrowRight Arrow

Hourly Observations for January 13, 2016

Temp ( °F °C ) Dew Point ( °F °C ) Humidity (%) Winds ( mph kmh ) Pressure ( in mb ) Visibility ( mi km ) Precip ( " mm )
12:59 am 00:59 Clear 41 5 14 -10 33 33 WNW 21 33 30.01 1016 10 16 0.00 0.00
1:59 am 01:59 Clear 39 3.9 17 -8.3 41 41 NW 17 28 30.04 1017 10 16 0.00 0.00
2:59 am 02:59 Clear 36 2.2 10 -12.2 34 34 NW 17 28 30.08 1019 10 16 0.00 0.00
3:59 am 03:59 Clear 35 1.7 11 -11.7 37 37 NW 16 26 30.10 1019 10 16 0.00 0.00
4:59 am 04:59 Clear 33 0.6 10 -12.2 38 38 NW 17 28 30.12 1020 10 16 0.00 0.00
5:59 am 05:59 Clear 32 0 10 -12.2 40 40 NW 14 22 30.16 1021 10 16 0.00 0.00
6:59 am 06:59 Clear 31 -0.6 10 -12.2 42 42 NW 15 24 30.17 1022 10 16 0.00 0.00
7:59 am 07:59 Sunny 31 -0.6 6 -14.4 35 35 NW 14 22 30.19 1022 10 16 0.00 0.00
8:59 am 08:59 Sunny 33 0.6 6 -14.4 32 32 NW 12 19 30.22 1023 10 16 0.00 0.00
9:59 am 09:59 Sunny 34 1.1 4 -15.6 28 28 WNW 15 24 30.22 1023 10 16 0.00 0.00
10:59 am 10:59 Sunny 36 2.2 6 -14.4 28 28 NW 10 17 30.21 1023 10 16 0.00 0.00
11:59 am 11:59 Sunny 36 2.2 6 -14.4 28 28 WNW 9 15 30.17 1022 10 16 0.00 0.00
12:59 pm 12:59 Mostly Sunny 36 2.2 6 -14.4 28 28 W 7 11 30.14 1021 10 16 0.00 0.00
1:59 pm 13:59 Mostly Sunny 38 3.3 8 -13.3 29 29 WNW 9 15 30.13 1020 10 16 0.00 0.00
2:59 pm 14:59 Mostly Sunny 37 2.8 8 -13.3 30 30 W 8 13 30.11 1020 10 16 0.00 0.00
3:59 pm 15:59 Mostly Sunny 38 3.3 7 -13.9 27 27 W 8 13 30.11 1020 10 16 0.00 0.00
4:59 pm 16:59 Mostly Sunny 36 2.2 8 -13.3 31 31 W 8 13 30.13 1020 10 16 0.00 0.00
5:59 pm 17:59 Mostly Clear 36 2.2 6 -14.4 28 28 W 6 9 30.14 1021 10 16 0.00 0.00
6:59 pm 18:59 Mostly Clear 35 1.7 8 -13.3 32 32 WSW 6 9 30.14 1021 10 16 0.00 0.00
7:59 pm 19:59 Clear 35 1.7 9 -12.8 34 34 W 7 11 30.13 1020 10 16 0.00 0.00
8:59 pm 20:59 Clear 35 1.7 10 -12.2 35 35 WSW 6 9 30.13 1020 10 16 0.00 0.00
9:59 pm 21:59 Mostly Clear 31 -0.6 13 -10.6 47 47 SW 6 9 30.13 1020 10 16 0.00 0.00
10:59 pm 22:59 Clear 28 -2.2 16 -8.9 60 60 Calm 30.10 1019 10 16 0.00 0.00
11:59 pm 23:59 Clear 29 -1.7 14 -10 54 54 S 3 6 30.09 1019 10 16 0.00 0.00

Powered by AerisWeather